This is the latest recevied weather packets stored in our database for station/object KC0RPY. If no packets are shown the sender has not sent any weather packets the latest 10 day(s).
| Time | Temp. | Humidity | Pressure | Rain* | Wind** | Luminosity | Snow |
|---|---|---|---|---|---|---|---|
| 1777596767 | 14.44° C | 61% | 1017.3 hPa | 0 mm | - | 12 W/m² | - |
| 1777596463 | 14.44° C | 61% | 1017.3 hPa | 0 mm | - | 17 W/m² | - |
| 1777596161 | 15° C | 61% | 1017.3 hPa | 0 mm | - | 23 W/m² | - |
| 1777595858 | 15° C | 61% | 1017.3 hPa | 0 mm | - | 27 W/m² | - |
| 1777595553 | 15° C | 60% | 1017.3 hPa | 0 mm | - | 29 W/m² | - |
| 1777595249 | 15.56° C | 58% | 1016.7 hPa | 0 mm | - | 30 W/m² | - |
| 1777594945 | 15.56° C | 56% | 1017.3 hPa | 0 mm | - | 35 W/m² | - |
| 1777594642 | 15.56° C | 56% | 1017 hPa | 0 mm | - | 42 W/m² | - |
| 1777594339 | 16.11° C | 57% | 1016.7 hPa | 0 mm | - | 55 W/m² | - |
| 1777594035 | 16.11° C | 57% | 1016.7 hPa | 0 mm | - | 72 W/m² | - |
| 1777593730 | 16.11° C | 56% | 1016.7 hPa | 0 mm | - | 90 W/m² | - |
| 1777593426 | 16.11° C | 56% | 1016.7 hPa | 0 mm | - | 92 W/m² | - |
| 1777593125 | 16.67° C | 56% | 1016.7 hPa | 0 mm | - | 86 W/m² | - |
| 1777592824 | 16.67° C | 56% | 1016.7 hPa | 0 mm | - | 92 W/m² | - |
| 1777592521 | 16.67° C | 56% | 1016.7 hPa | 0 mm | - | 95 W/m² | - |
| 1777592216 | 17.22° C | 54% | 1016.3 hPa | 0 mm | - | 104 W/m² | - |
| 1777591913 | 17.22° C | 52% | 1016.3 hPa | 0 mm | - | 113 W/m² | - |
| 1777591610 | 17.22° C | 52% | 1016.3 hPa | 0 mm | - | 107 W/m² | - |
| 1777591306 | 17.22° C | 55% | 1016.3 hPa | 0 mm | - | 110 W/m² | - |
| 1777591001 | 17.22° C | 57% | 1016.3 hPa | 0 mm | - | 104 W/m² | - |
| 1777590696 | 16.67° C | 60% | 1016.3 hPa | 0 mm | - | 111 W/m² | - |
| 1777590393 | 16.67° C | 61% | 1016.3 hPa | 0 mm | - | 144 W/m² | - |
| 1777590091 | 16.67° C | 61% | 1016.3 hPa | 0 mm | - | 254 W/m² | - |
| 1777589787 | 16.67° C | 63% | 1016.3 hPa | 0 mm | - | 186 W/m² | - |
| 1777589486 | 16.67° C | 63% | 1016.3 hPa | 0 mm | - | 151 W/m² | - |
* Rain latest hour (hover to see other rain measurements)
** Current wind speed in m/s (hover to see current wind gust speed)